Location: downtown San Diego
(32.7310°N, 117.1990°W)
Time: 16:31:33
(UTC-07:00)

OAO 1 Rocket - Pass Details

Date: 12 July 2018
Orbit: 744 x 755 km, 35.0° (Epoch: 21 July)

Event Time Altitude Azimuth Distance (km) Brightness Sun altitude
Rises 22:20:04 0° 249° (WSW) 3,167 7.9 -24.1°
Reaches altitude 10° 22:22:31 10° 248° (WSW) 2,245 7.1 -24.5°
Enters shadow 22:27:44 78° 172° (S) 760 4.2 -25.2°
